weather.gov     
National Weather Service

Terminal Aerodrome Forecast
NWS Homepage
This page is being discontinued on March 12, 2014.
The same data is available at this site. Please update your bookmarks.
Thank you, and we apologize for the inconvenience.
Please send an email to SR-SRH.Webmaster@noaa.gov with any concerns.


Current Version
Previous Version:    01  02  03  04  05  06  07  08  09  10  11  12  13  14  15  16  17  18  19  20  21  22  23  24  25  26  27  28  29  30  
   31  32  33  34  35  36  37  
[Printable]
146
FTUS46 KPDT 241400 AAB
TAFBDN
TAF AMD
KBDN 241406Z 2414/2512 18005KT P6SM -RA BKN035 OVC050
      TEMPO 2414/2418 5SM RA OVC020
     FM242100 36007KT P6SM -SHRA BKN050
     FM250200 36006KT P6SM SCT035 BKN250
     FM250800 VRB04KT P6SM BKN250=


U.S. Dept. of Commerce
NOAA National Weather Service
1325 East West Highway
Silver Spring, MD 20910
E-mail: w-nws.webmaster@noaa.gov
Page last modified: May 16, 2007
NATIONAL WEATHER SERVICE: for Safety, for Work, for Fun - FOR LIFE